Regional Weather Roundup
Issued by NWS

Home | Current Version | Previous Version | Text Only | Print | Product List | Glossary Off
Versions: 1 2 3 4 5 6 7 8 9 10 11 12 13 14 15 16 17 18 19 20 21 22 23 24 25 26 27 28

000
ASUS45 KSLC 190010
RWRUT

UTAH REGIONAL WEATHER ROUNDUP
NATIONAL WEATHER SERVICE SALT LAKE CITY UT
500 PM MST WED JAN 18 2017

UTZ001>011-023>025-190100-

NORTHERN UTAH

CITY           SKY/WX    TMP DP  RH WIND       PRES   REMARKS
BRIGHAM CITY     N/A     24  15  71 CALM      29.99F
DUGWAY         MOCLDY    26  23  91 N7        29.98R FOG     WCI  18
HILL AFB       MOCLDY    22  17  80 N9        29.96R WCI  12
LOGAN          PTCLDY    13   7  77 N6        29.99R HAZE    WCI   4
OGDEN          CLEAR     21  17  84 N8        29.98R FOG     WCI  11
SALT LAKE CITY MOCLDY    26  21  81 NW15      29.98R HAZE    WCI  14
TOOELE VALLEY  PTCLDY    27  23  86 N8        29.99R FOG     WCI  18
WENDOVER       CLOUDY    25  18  74 CALM      29.99S
HEBER CITY     CLEAR     18  10  73 CALM      29.91F
WEST JORDAN    PTCLDY    30  27  90 N8        29.95R WCI  22

$$

UTZ011>015-024>027-190100-

CENTRAL/NORTHEAST UTAH

CITY           SKY/WX    TMP DP  RH WIND       PRES   REMARKS
PROVO AIRPORT  CLEAR     29  21  72 CALM      29.94F
MOAB/CANYONLAN CLEAR     40  28  62 NW6       29.99S
DELTA          MOCLDY    37  27  65 MISG      29.92F
PRICE          CLEAR     31  12  45 CALM      29.99F
RICHFIELD      CLEAR     39  25  56 CALM      29.94S
ROOSEVELT      CLOUDY    19  10  68 CALM      30.08F
VERNAL         CLOUDY    16  10  77 SE3       30.04F

$$

UTZ013>016-019>022-027-190100-

SOUTHERN UTAH

CITY           SKY/WX    TMP DP  RH WIND       PRES   REMARKS
BRYCE CANYON   CLEAR     26  19  74 SE9       30.00R WCI  17
CEDAR CITY     PTCLDY    43  15  32 SW22      29.93F
MILFORD        MOCLDY    45  23  42 S22G29    29.90F
ST GEORGE      CLEAR     50  30  46 S3        30.00F
HANKSVILLE     CLEAR     41  25  52 MISG      30.03S
KANAB          CLEAR     46  28  49 CALM      30.04S
BLANDING       PTCLDY    41  30  65 S5        30.07S

$$

REGIONAL REPORTS     COLORADO/ARIZONA

CITY           SKY/WX    TMP DP  RH WIND       PRES   REMARKS
CRAIG, CO      CLOUDY    16  10  77 CALM      29.98F
GRAND JUNCTION CLEAR     40  30  67 NW6       29.98F
RIFLE, CO      CLOUDY    40  25  55 SW5       29.98S
MONTROSE, CO   CLEAR     42  27  55 N3        29.99F
CORTEZ, CO     PTCLDY    40  29  64 W9        30.01F WCI  34
COLORADO CITY    N/A     48  27  43 NW3       30.03F
PAGE, AZ       CLEAR     47  25  42 CALM      29.99F
GRAND CANYON   CLEAR     44  21  40 W8G18     30.05R
KINGMAN, AZ    CLEAR     55  21  26 SW14      30.00F
FLAGSTAFF, AZ  CLEAR     40  24  53 SW13      30.06S WCI  32

$$

REGIONAL REPORTS    NEVADA/IDAHO/WYOMING

CITY           SKY/WX    TMP DP  RH WIND       PRES   REMARKS
LAS VEGAS, NV  MOCLDY    55  24  30 NE5       29.96F
ELY, NY        CLOUDY    37  19  48 S9G21     29.90F WCI  30
ELKO, NV       FLURRIES  27  17  66 NE7       29.87F WCI  19
POCATELLO, ID  CLOUDY    21  14  74 NE5       29.91F WCI  15
BURLEY, ID     CLOUDY    33  23  66 NE5       29.83F WCI  29
FORT BRIDGER,    N/A     16   9  72 CALM      29.91S
EVANSTON, WY   CLOUDY    26   9  48 SE7       29.87F WCI  18
ROCK SPRINGS,  CLOUDY    10   4  76 CALM      29.88F
KEMMERER, WY     N/A     23  10  58 CALM      29.87F

$$




USA.gov is the U.S. government's official web portal to all federal, state and local government web resources and services.